CZ-6A DEB, 54552

Orbit data source: Space-Track

CZ-6A DEB, 54552 is space debris in SSO originally from a launch on Fri, 11 Nov 2022 UTC launched from the Taiyaun Space Center, China (TSC). Debris objects in space refer to the collection of defunct objects orbiting the Earth. Examples of debris include non-operational satellites, rocket bodies, and fragments generated from explosions, collisions, or faulty payload assembly.

Loading next visibility...
Identifier
54552, 2022-151LC
Orbit
SSO
Country
Flag of CNCN / PRC
Related business
Manufacturer
SAST
Mission
Spacecraft
Bus & Motor
Unknown
Mass
Unknown
Launch date (UTC)
2022-11-11 (4 years ago)
Launch vehicle
Unknown
Launch site
Taiyaun Space Center, China (TSC)
Object type
Payload
Rocket body
Debris
Shape & HBR
Unknown shape, 0.3 m
Radar Cross Section
Medium (>0.1 m² and <1 m²)

Expand to show TLE details & history
Last TLE update: 2 days ago

TLE from 2 days ago
0 CZ-6A DEB
1 54552U 22151LC  26171.24822551  .00000031  00000-0  41185-4 0  9995
2 54552  98.8381 177.4399 0033018 317.5675  42.2944 14.11812464185437
Epoch: 2026-06-20T05:57Z
TLE epoch observation values (Epoch: 2026-06-20T05:57:26.684Z)
Latitude
-0.00003°
Longitude
179.61315°
Altitude
838.446 km
Speed
7.443 km/s
True Right ascension
11h 49m 45s
True Declination
0° 00' 00"
Sunlit
Object was in daylight at epoch
Visualization orbit readout
Latitude
Unknown
Longitude
Unknown
Altitude
Unknown
Speed
Unknown
Apparent Right ascension
Unknown
Apparent Declination
Unknown
Sunlit
N/A
Visualization observer readout
Local Sidereal Time
23:18:40
Azimuth
Unknown
Elevation
Unknown
Doppler factor
Unknown
Orbital elements
Apogee altitude
874.219 km
Perigee altitude
826.485 km
Semi-major axis
7,228.489 km
Eccentricity
0.0033
Inclination
98.8381°
RAAN
177.4399°
Arg. of periapsis
317.5675°
True anomaly
42.54979°
Mean anomaly
42.2944°
Eccentric anomaly
42.42202°
Mean motion
3.5316 °/min
Orbital period
101.94 mins
BSTAR
0.000041185
Loading maneuver chart data...
Computing Atmospheric mass density...
Loading historical data...
Loading historical data...
Loading historical data...
Loading historical data...
Loading historical data...
Loading historical data...
Loading historical data...

Documentation

Showing up to 5 results
|